Simultaneous Nadir Overpasses (SNOs) Predictions

Prediction of SNOs between AQUA and GOES-15 Satellite Orbit:

Table of predicted SNOs for the next 14.0 days since TLE Epoch: 11/5/2011
Index Date Time (AQUA) AQUA Lat,Lon GOES-15 Lat,Lon Distance(km) Time Diff (sec)
1 11/06/2011 20:24:58 0.59,-102.60 -0.08,-105.68 349.81 80
2 11/07/2011 08:46:14 0.46,-107.77 0.05,-105.86 217.32 80
3 11/09/2011 08:34:07 -0.47,-104.87 0.07,-107.46 294.32 80
4 11/09/2011 20:55:34 -0.45,-110.10 -0.04,-108.12 225.22 80
5 11/11/2011 20:43:26 0.47,-107.20 -0.06,-109.72 286.58 80
6 11/12/2011 09:04:42 0.56,-112.37 0.03,-109.90 280.22 80
7 11/14/2011 08:52:34 -0.41,-109.48 0.05,-111.50 231.30 80
8 11/14/2011 21:13:59 -0.59,-114.68 -0.03,-112.15 288.61 80
9 11/16/2011 21:01:50 0.36,-111.79 -0.04,-113.75 223.28 80
10 11/17/2011 09:23:05 0.64,-116.96 0.01,-113.94 343.01 80
11 11/19/2011 09:10:56 -0.30,-114.05 0.02,-115.53 168.68 80




NCC Satellite Simultaneous Nadir Overpasses (SNOs) Prediction Service
